FW4606 Weather Reports


time (UTC)temp
F
wind
direction
speed
knots
gust
knots
rain 1hr
in
rain 24hr
in
rain mn
in
humidity
%
barometer
mb
20260508174019 69 160 1.7 7.0 0.00 0.00 0.00 30 1005.1
20260508173513 68 93 3.5 8.7 0.00 0.00 0.00 30 1005.2
20260508173008 68 152 2.6 8.7 0.00 0.00 0.00 30 1005.3
20260508172502 68 94 2.6 8.7 0.00 0.00 0.00 32 1005.4
20260508171956 68 156 3.5 7.8 0.00 0.00 0.00 29 1005.7
20260508171450 68 139 2.6 7.8 0.00 0.00 0.00 31 1005.7
20260508170944 67 158 3.5 7.0 0.00 0.00 0.00 34 1005.7
20260508170438 67 165 2.6 6.1 0.00 0.00 0.00 31 1005.8
20260508165938 67 191 2.6 6.1 0.00 0.00 0.00 32 1005.9
20260508165436 66 167 1.7 6.1 0.00 0.00 0.00 33 1005.9
20260508164938 65 231 0.9 2.6 0.00 0.00 0.00 33 1006.0
20260508164437 64 204 1.7 3.5 0.00 0.00 0.00 34 1006.1
20260508163937 64 215 1.7 4.3 0.00 0.00 0.00 37 1006.2
20260508163436 63 234 2.6 5.2 0.00 0.00 0.00 37 1006.3
20260508162938 64 212 2.6 5.2 0.00 0.00 0.00 36 1006.3
20260508162707 64 191 2.6 6.1 0.00 0.00 0.00 37 1006.3
20260508161934 63 156 2.6 6.1 0.00 0.00 0.00 37 1006.3
20260508161432 62 214 2.6 5.2 0.00 0.00 0.00 39 1006.3
20260508160934 62 212 2.6 7.0 0.00 0.00 0.00 41 1006.4
20260508160702 61 197 2.6 7.0 0.00 0.00 0.00 40 1006.4
20260508155930 60 141 2.6 6.1 0.00 0.00 0.00 39 1006.5
20260508155432 59 204 2.6 6.1 0.00 0.00 0.00 42 1006.5
20260508154931 58 190 1.7 6.1 0.00 0.00 0.00 42 1006.6
20260508154431 58 183 1.7 3.5 0.00 0.00 0.00 44 1006.7
20260508154200 58 224 1.7 4.3 0.00 0.00 0.00 44 1006.7
20260508153429 57 208 1.7 4.3 0.00 0.00 0.00 44 1006.8
20260508152930 57 205 1.7 4.3 0.00 0.00 0.00 44 1006.8
20260508152431 57 184 1.7 4.3 0.00 0.00 0.00 44 1006.9
20260508151931 57 233 1.7 4.3 0.00 0.00 0.00 45 1006.9
20260508151433 56 126 1.7 4.3 0.00 0.00 0.00 44 1006.9
20260508150929 56 176 1.7 4.3 0.00 0.00 0.00 48 1007.0
20260508150434 55 173 0.9 2.6 0.00 0.00 0.00 49 1007.2
20260508150427 55 151 0.9 3.5 0.00 0.00 0.00 46 1007.0
20260508145425 55 153 0.9 2.6 0.00 0.00 0.00 48 1007.1
20260508144926 55 207 0.9 2.6 0.00 0.00 0.00 47 1007.3
20260508144424 54 224 0.9 2.6 0.00 0.00 0.00 49 1007.4
20260508143925 54 189 0.9 3.5 0.00 0.00 0.00 48 1007.4
20260508143425 53 194 0.9 3.5 0.00 0.00 0.00 50 1007.4
20260508142924 53 211 0.0 3.5 0.00 0.00 0.00 49 1007.6
20260508142426 52 217 0.9 3.5 0.00 0.00 0.00 53 1007.5
20260508141926 52 211 0.9 3.5 0.00 0.00 0.00 53 1007.5
20260508141654 51 162 0.9 3.5 0.00 0.00 0.00 51 1007.6
20260508140923 51 221 0.0 2.6 0.00 0.00 0.00 52 1007.6
20260508140422 51 214 0.0 3.5 0.00 0.00 0.00 51 1007.7
20260508135923 50 159 0.0 3.5 0.00 0.00 0.00 50 1007.7
20260508135422 50 205 0.0 1.7 0.00 0.00 0.00 52 1007.7
20260508134923 49 194 0.0 1.7 0.00 0.00 0.00 55 1007.8
20260508134654 49 160 0.0 1.7 0.00 0.00 0.00 55 1007.9
20260508133924 48 232 0.0 1.7 0.00 0.00 0.00 57 1007.8
20260508133420 47 173 0.0 1.7 0.00 0.00 0.00 59 1007.9
20260508132920 47 197 0.0 1.7 0.00 0.00 0.00 63 1007.9
20260508132651 45 231 0.0 1.7 0.00 0.00 0.00 63 1008.0
20260508131920 44 162 0.0 0.0 0.00 0.00 0.00 69 1007.9
20260508131418 42 150 0.0 0.0 0.00 0.00 0.00 70 1008.0
20260508131149 41 176 0.0 0.0 0.00 0.00 0.00 72 1008.0
20260508130419 39 162 0.0 0.0 0.00 0.00 0.00 78 1008.0
20260508125919 37 163 0.0 0.0 0.00 0.00 0.00 88 1008.0
20260508125420 36 163 0.0 0.0 0.00 0.00 0.00 92 1008.1
20260508124916 35 163 0.0 0.0 0.00 0.00 0.00 92 1008.1
20260508124416 35 164 0.0 0.0 0.00 0.00 0.00 92 1008.1
20260508123914 34 163 0.0 0.0 0.00 0.00 0.00 92 1008.0
20260508123415 34 163 0.0 0.0 0.00 0.00 0.00 92 1008.0
20260508122915 33 163 0.0 0.0 0.00 0.00 0.00 93 1008.0
20260508122416 33 163 0.0 0.0 0.00 0.00 0.00 93 1008.0
20260508121916 32 163 0.0 0.0 0.00 0.00 0.00 93 1008.0
20260508121414 32 163 0.0 0.0 0.00 0.00 0.00 93 1008.0
20260508120915 31 163 0.0 0.0 0.00 0.00 0.00 92 1008.0
20260508120644 31 163 0.0 0.0 0.00 0.00 0.00 92 1008.0
20260508120141 31 163 0.0 0.0 0.00 0.00 0.00 92 1008.0
20260508115410 31 163 0.0 0.0 0.00 0.00 0.00 92 1008.0
20260508114911 31 163 0.0 0.0 0.00 0.00 0.00 92 1007.9
20260508114410 31 163 0.0 0.0 0.00 0.00 0.00 92 1007.9
20260508113912 31 163 0.0 0.0 0.00 0.00 0.00 92 1007.8
20260508113411 30 141 0.0 0.0 0.00 0.00 0.00 92 1007.8
20260508112912 31 141 0.0 0.0 0.00 0.00 0.00 92 1007.8
20260508112412 31 141 0.0 0.0 0.00 0.00 0.00 92 1007.7
20260508111908 30 141 0.0 0.0 0.00 0.00 0.00 93 1007.7
20260508111638 30 141 0.0 0.0 0.00 0.00 0.00 93 1007.7
20260508110908 30 166 0.0 0.0 0.00 0.00 0.00 92 1007.7
20260508110640 30 166 0.0 0.0 0.00 0.00 0.00 92 1007.8
20260508105908 30 166 0.0 0.0 0.00 0.00 0.00 92 1007.8
20260508105407 30 166 0.0 0.0 0.00 0.00 0.00 92 1007.8
20260508105143 30 166 0.0 0.0 0.00 0.00 0.00 91 1007.7
20260508104908 30 166 0.0 0.0 0.00 0.00 0.00 92 1007.7
20260508103907 30 166 0.0 0.0 0.00 0.00 0.00 91 1007.8
20260508103406 30 166 0.0 0.0 0.00 0.00 0.00 91 1007.8
20260508102907 30 166 0.0 0.0 0.00 0.00 0.00 91 1007.8
20260508102406 30 166 0.0 0.0 0.00 0.00 0.00 90 1007.8
20260508101908 30 166 0.0 0.0 0.00 0.00 0.00 90 1007.8
20260508101406 30 166 0.0 0.0 0.00 0.00 0.00 90 1007.9
20260508100906 30 150 0.0 0.0 0.00 0.00 0.00 90 1007.9
20260508100407 31 150 0.0 0.0 0.00 0.00 0.00 89 1007.9
20260508100140 31 150 0.0 0.0 0.00 0.00 0.00 88 1007.8
20260508095406 31 150 0.0 0.0 0.00 0.00 0.00 88 1007.8
20260508094907 32 150 0.0 0.0 0.00 0.00 0.00 89 1007.8
20260508094406 32 150 0.0 0.0 0.00 0.00 0.00 89 1007.8
20260508093907 32 150 0.0 0.0 0.00 0.00 0.00 88 1007.8
20260508093408 32 150 0.0 0.0 0.00 0.00 0.00 87 1007.8
20260508092907 32 150 0.0 0.0 0.00 0.00 0.00 87 1007.7
20260508092407 33 150 0.0 0.0 0.00 0.00 0.00 86 1007.7
20260508091909 33 150 0.0 0.0 0.00 0.00 0.00 87 1007.7
20260508091407 33 150 0.0 0.0 0.00 0.00 0.00 87 1007.7
20260508090905 33 150 0.0 0.0 0.00 0.00 0.00 87 1007.7
20260508090637 33 150 0.0 0.0 0.00 0.00 0.00 86 1007.8
20260508085906 33 150 0.0 0.0 0.00 0.00 0.00 84 1007.8
20260508085405 34 150 0.0 0.0 0.00 0.00 0.00 82 1007.8
20260508084903 34 150 0.0 0.0 0.00 0.00 0.00 82 1007.8
20260508084402 35 150 0.0 0.0 0.00 0.00 0.00 82 1007.7
20260508083902 36 150 0.0 0.0 0.00 0.00 0.00 81 1007.8
20260508083404 36 150 0.0 0.0 0.00 0.00 0.00 80 1007.7
20260508082900 37 150 0.0 0.0 0.00 0.00 0.00 79 1007.8
20260508082355 37 150 0.0 0.0 0.00 0.00 0.00 79 1007.8
20260508082125 37 150 0.0 0.0 0.00 0.00 0.00 80 1007.8
20260508081353 36 150 0.0 0.0 0.00 0.00 0.00 79 1007.9
20260508081125 37 151 0.0 0.0 0.00 0.00 0.00 78 1007.8
20260508080352 37 150 0.0 0.0 0.00 0.00 0.00 78 1007.9
20260508080123 37 150 0.0 0.0 0.00 0.00 0.00 79 1007.9
20260508075618 37 150 0.0 0.0 0.00 0.00 0.00 79 1007.9
20260508074847 37 150 0.0 0.0 0.00 0.00 0.00 77 1007.9
20260508074346 37 150 0.0 0.0 0.00 0.00 0.00 76 1007.9
20260508073848 37 150 0.0 0.0 0.00 0.00 0.00 76 1008.0
20260508073342 38 150 0.0 0.0 0.00 0.00 0.00 76 1008.0
20260508072836 38 150 0.0 0.0 0.00 0.00 0.00 76 1008.0
20260508072604 38 150 0.0 0.0 0.00 0.00 0.00 75 1008.0
20260508071830 38 150 0.0 0.0 0.00 0.00 0.00 76 1008.1
20260508071329 37 150 0.0 0.0 0.00 0.00 0.00 76 1008.1
20260508070826 38 150 0.0 0.0 0.00 0.00 0.00 77 1008.2
20260508070326 38 150 0.0 0.0 0.00 0.00 0.00 75 1008.2
20260508065825 38 151 0.0 0.0 0.00 0.00 0.00 75 1008.1
20260508065326 38 150 0.0 0.0 0.00 0.00 0.00 76 1008.2
20260508064823 38 150 0.0 0.0 0.00 0.00 0.00 77 1008.2
20260508064321 37 150 0.0 0.0 0.00 0.00 0.00 79 1008.2
20260508063818 36 150 0.0 0.0 0.00 0.00 0.00 82 1008.2
20260508063548 35 150 0.0 0.0 0.00 0.00 0.00 82 1008.3
20260508062814 35 150 0.0 0.0 0.00 0.00 0.00 82 1008.3
20260508062314 35 150 0.0 0.0 0.00 0.00 0.00 80 1008.3
20260508061814 35 150 0.0 0.0 0.00 0.00 0.00 80 1008.4
20260508061309 36 150 0.0 0.0 0.00 0.00 0.00 79 1008.4
20260508060807 36 150 0.0 0.0 0.00 0.00 0.00 78 1008.4
20260508060308 37 150 0.0 0.0 0.00 0.00 0.00 76 1008.4
20260508055806 37 150 0.0 0.0 0.00 0.00 0.00 75 1008.5
20260508055306 38 150 0.0 0.0 0.00 0.00 0.00 74 1008.5
20260508055039 38 150 0.0 0.0 0.00 0.00 0.00 74 1008.6
20260508054305 38 150 0.0 0.0 0.00 0.00 0.00 75 1008.6
20260508053758 37 150 0.0 0.0 0.00 0.00 0.00 76 1008.6
20260508053250 37 150 0.0 0.0 0.00 0.00 0.00 74 1008.7
20260508052745 38 150 0.0 0.0 0.00 0.00 0.00 73 1008.7
20260508052510 38 150 0.0 0.0 0.00 0.00 0.00 73 1008.7
20260508051732 39 150 0.0 0.0 0.00 0.00 0.00 71 1008.7
20260508051227 39 150 0.0 0.0 0.00 0.00 0.00 70 1008.7
20260508050721 40 150 0.0 0.0 0.00 0.00 0.00 70 1008.7
20260508050214 40 150 0.0 0.0 0.00 0.00 0.00 68 1008.7
20260508045708 40 150 0.0 0.0 0.00 0.00 0.00 69 1008.8
20260508045201 40 150 0.0 0.0 0.00 0.00 0.00 70 1008.8
20260508044656 40 150 0.0 0.0 0.00 0.00 0.00 69 1008.8
20260508044421 40 150 0.0 0.0 0.00 0.00 0.00 70 1008.8
20260508044313 39 150 0.0 0.0 0.00 0.00 0.00 71 1008.8
20260508043147 38 150 0.0 0.0 0.00 0.00 0.00 72 1008.9
20260508042646 38 150 0.0 0.0 0.00 0.00 0.00 73 1009.0
20260508042143 38 150 0.0 0.0 0.00 0.00 0.00 74 1008.9
20260508041641 38 150 0.0 0.0 0.00 0.00 0.00 72 1008.9
20260508041142 38 150 0.0 0.0 0.00 0.00 0.00 71 1008.9
20260508040642 39 150 0.0 0.0 0.00 0.00 0.00 71 1009.0
20260508040140 39 150 0.0 0.0 0.00 0.00 0.00 70 1009.0
20260508035638 40 150 0.0 0.0 0.00 0.00 0.00 68 1009.1
20260508035136 40 150 0.0 0.0 0.00 0.00 0.00 66 1009.1
20260508034638 41 150 0.0 0.0 0.00 0.00 0.00 66 1009.1
20260508034138 41 150 0.0 0.0 0.00 0.00 0.00 65 1009.2
20260508033637 42 150 0.0 0.0 0.00 0.00 0.00 64 1009.2
20260508033136 42 150 0.0 0.0 0.00 0.00 0.00 63 1009.3
20260508032634 43 150 0.0 0.0 0.00 0.00 0.00 63 1009.3
20260508032403 43 151 0.0 0.0 0.00 0.00 0.00 61 1009.2
20260508031633 43 150 0.0 0.0 0.00 0.00 0.00 61 1009.2
20260508031404 43 150 0.0 0.0 0.00 0.00 0.00 61 1009.3
20260508030636 44 150 0.0 0.0 0.00 0.00 0.00 60 1009.3
20260508030131 44 151 0.0 0.0 0.00 0.00 0.00 58 1009.3
20260508025625 45 150 0.0 0.0 0.00 0.00 0.00 58 1009.3
20260508025119 45 151 0.0 0.0 0.00 0.00 0.00 56 1009.3
20260508024614 46 150 0.0 0.0 0.00 0.00 0.00 54 1009.2
20260508024107 46 150 0.0 0.0 0.00 0.00 0.00 53 1009.3
20260508023600 46 150 0.0 0.0 0.00 0.00 0.00 53 1009.2
20260508023325 47 150 0.0 0.0 0.00 0.00 0.00 52 1009.2
20260508022819 47 150 0.0 0.0 0.00 0.00 0.00 52 1009.2
20260508022043 47 150 0.0 0.0 0.00 0.00 0.00 50 1009.1
20260508021536 48 150 0.0 0.0 0.00 0.00 0.00 49 1009.1
20260508021302 48 150 0.0 0.0 0.00 0.00 0.00 48 1009.0
20260508020524 48 153 0.0 0.0 0.00 0.00 0.00 49 1009.0
20260508020018 48 151 0.0 0.0 0.00 0.00 0.00 49 1009.0
20260508015513 48 150 0.0 0.0 0.00 0.00 0.00 49 1008.9
20260508015007 48 150 0.0 0.0 0.00 0.00 0.00 48 1008.9
20260508014501 49 150 0.0 0.0 0.00 0.00 0.00 48 1008.8
20260508014226 49 150 0.0 0.0 0.00 0.00 0.00 48 1008.8
20260508013449 50 151 0.0 0.0 0.00 0.00 0.00 46 1008.8
20260508012943 51 151 0.0 0.0 0.00 0.00 0.00 44 1008.8
20260508012437 51 151 0.0 0.0 0.00 0.00 0.00 44 1008.8
20260508011930 52 151 0.0 0.0 0.00 0.00 0.00 43 1008.7
20260508011425 53 153 0.0 0.0 0.00 0.00 0.00 46 1008.7
20260508010918 53 153 0.0 0.9 0.00 0.00 0.00 43 1008.6
20260508010413 54 153 0.0 0.9 0.00 0.00 0.00 43 1008.6
20260508005907 54 186 0.0 1.7 0.00 0.00 0.00 40 1008.6
20260508005401 55 176 0.9 2.6 0.00 0.00 0.00 38 1008.7
20260508004854 55 183 0.9 4.3 0.00 0.00 0.00 38 1008.6
20260508004619 55 211 1.7 4.3 0.00 0.00 0.00 38 1008.6
20260508003843 56 194 1.7 5.2 0.00 0.00 0.00 37 1008.6
20260508003336 56 197 2.6 5.2 0.00 0.00 0.00 35 1008.6
20260508003101 57 132 1.7 5.2 0.00 0.00 0.00 35 1008.7
20260508002324 57 203 0.9 4.3 0.00 0.00 0.00 36 1008.7
20260508001818 58 146 0.9 3.5 0.00 0.00 0.00 35 1008.7
20260508001313 58 203 1.7 5.2 0.00 0.00 0.00 36 1008.7
20260508000806 58 174 1.7 5.2 0.00 0.00 0.00 33 1008.7
20260508000301 58 158 1.7 4.3 0.00 0.00 0.00 33 1008.7
20260508000025 58 172 0.9 4.3 0.00 0.00 0.00 34 1008.8
20260507235520 58 168 0.9 3.5 0.00 0.00 0.00 34 1008.8
20260507234743 59 101 0.9 4.3 0.00 0.00 0.00 32 1008.8
20260507234242 58 173 3.5 6.1 0.00 0.00 0.00 32 1008.9
20260507234237 59 146 1.7 4.3 0.00 0.00 0.00 33 1008.8
20260507233232 58 123 2.6 6.1 0.00 0.00 0.00 31 1008.9
20260507232733 59 149 3.5 7.0 0.00 0.00 0.00 33 1008.9
20260507232232 59 194 2.6 7.0 0.00 0.00 0.00 33 1009.0
20260507231730 59 191 0.9 6.1 0.00 0.00 0.00 33 1009.0
20260507231232 58 163 1.7 6.1 0.00 0.00 0.00 32 1009.0
20260507230730 59 207 2.6 6.1 0.00 0.00 0.00 31 1009.1
20260507230230 59 145 1.7 6.1 0.00 0.00 0.00 33 1009.2
20260507225729 60 133 0.9 4.3 0.00 0.00 0.00 32 1009.1
20260507225228 61 105 0.0 3.5 0.00 0.00 0.00 29 1009.2
20260507224955 60 322 0.0 2.6 0.00 0.00 0.00 31 1009.3
20260507224223 59 43 0.0 2.6 0.00 0.00 0.00 31 1009.5
20260507223720 59 106 1.7 6.1 0.00 0.00 0.00 33 1009.2
20260507223222 60 174 3.5 7.0 0.00 0.00 0.00 30 1009.2
20260507222720 61 173 2.6 7.0 0.00 0.00 0.00 31 1009.2
20260507222221 62 167 1.7 6.1 0.00 0.00 0.00 31 1009.3
20260507221721 62 112 0.9 4.3 0.00 0.00 0.00 29 1009.3
20260507221222 61 165 0.9 4.3 0.00 0.00 0.00 29 1009.5
20260507220715 61 252 0.9 4.3 0.00 0.00 0.00 28 1009.5
20260507220209 60 356 0.9 4.3 0.00 0.00 0.00 29 1009.6
20260507215704 61 170 0.9 3.5 0.00 0.00 0.00 30 1009.6
20260507215204 60 47 1.7 5.2 0.00 0.00 0.00 32 1009.6
20260507214701 60 188 1.7 9.6 0.00 0.00 0.00 29 1009.7
20260507214429 61 226 2.6 9.6 0.00 0.00 0.00 31 1009.7
20260507213704 61 225 1.7 7.0 0.00 0.00 0.00 29 1009.7
20260507213658 61 204 2.6 8.7 0.00 0.00 0.00 29 1009.8
20260507212704 62 188 1.7 7.0 0.00 0.00 0.00 29 1009.7
20260507212659 62 174 2.6 7.0 0.00 0.00 0.00 29 1009.8
20260507211700 61 131 0.9 4.3 0.00 0.00 0.00 31 1009.8
20260507211159 61 148 1.7 5.2 0.00 0.00 0.00 30 1009.7
20260507210659 60 32 3.5 7.8 0.00 0.00 0.00 31 1009.7
20260507210159 61 162 3.5 7.8 0.00 0.00 0.00 28 1009.9
20260507205700 61 198 2.6 7.0 0.00 0.00 0.00 31 1009.9
20260507205200 61 142 2.6 7.0 0.00 0.00 0.00 30 1009.8
20260507204658 61 222 4.3 8.7 0.00 0.00 0.00 31 1010.0
20260507204432 61 186 3.5 8.7 0.00 0.00 0.00 30 1010.1
20260507204326 60 186 2.6 7.0 0.00 0.00 0.00 32 1010.2
20260507203153 60 207 3.5 10.4 0.00 0.00 0.00 30 1010.1
20260507202648 59 212 1.7 10.4 0.00 0.00 0.00 30 1010.1
20260507202141 59 135 1.7 7.0 0.00 0.00 0.00 27 1010.2
20260507201642 60 207 1.7 7.0 0.00 0.00 0.00 26 1010.3
20260507201138 60 218 1.7 6.1 0.00 0.00 0.00 28 1010.5
20260507200639 61 326 2.6 8.7 0.00 0.00 0.00 30 1010.5
20260507200137 60 153 1.7 8.7 0.00 0.00 0.00 31 1010.4
20260507195637 60 62 0.9 3.5 0.00 0.00 0.00 28 1010.6
20260507195138 60 200 0.9 5.2 0.00 0.00 0.00 29 1010.6
20260507194635 60 274 1.7 5.2 0.00 0.00 0.00 30 1010.7
20260507194135 59 235 2.6 7.0 0.00 0.00 0.00 30 1010.7
20260507193636 60 175 2.6 7.8 0.00 0.00 0.00 36 1010.8
20260507193134 60 335 1.7 7.8 0.00 0.00 0.00 32 1010.7
20260507192634 59 187 0.9 6.1 0.00 0.00 0.00 33 1010.7
20260507192134 59 309 0.9 5.2 0.00 0.00 0.00 31 1010.8
20260507191634 58 207 1.7 6.1 0.00 0.00 0.00 32 1010.8
20260507191134 57 226 2.6 7.8 0.00 0.00 0.00 34 1010.9
20260507190636 57 146 1.7 7.8 0.00 0.00 0.00 31 1010.8
20260507190134 57 1 0.9 7.0 0.00 0.00 0.00 32 1010.8
20260507185633 57 233 0.9 3.5 0.00 0.00 0.00 28 1010.9
20260507185134 58 184 2.6 7.0 0.00 0.00 0.00 32 1011.0
20260507184905 58 218 3.5 7.8 0.00 0.00 0.00 33 1010.9
20260507184137 59 218 1.7 6.1 0.00 0.00 0.00 35 1011.0
20260507184133 59 228 3.5 7.8 0.00 0.00 0.00 33 1011.0
20260507183134 58 233 0.9 5.2 0.00 0.00 0.00 34 1011.0
20260507182634 58 236 1.7 7.8 0.00 0.00 0.00 31 1011.2
20260507182132 57 221 1.7 7.8 0.00 0.00 0.00 35 1011.2
20260507181634 57 236 0.9 4.3 0.00 0.00 0.00 32 1011.2
20260507181133 57 239 1.7 5.2 0.00 0.00 0.00 30 1011.2
20260507180634 57 228 0.9 5.2 0.00 0.00 0.00 33 1011.3
20260507180133 56 201 0.0 5.2 0.00 0.00 0.00 38 1011.3
20260507175904 55 164 0.0 2.6 0.00 0.00 0.00 31 1011.4
20260507175132 55 141 0.0 2.6 0.00 0.00 0.00 34 1011.6
20260507174632 56 22 0.9 4.3 0.00 0.00 0.00 32 1011.6
20260507174403 56 19 2.6 7.8 0.00 0.00 0.00 32 1011.6